Location: Camaret
(48.2753°N, 4.5961°W)
Time: 00:42:01
(UTC+00:00)

Cosmos 1606 Rocket - Pass Details

Date: 29 October 2020
Orbit: 604 x 631 km, 82.5° (Epoch: 26 November)

Event Time Altitude Azimuth Distance (km) Brightness Sun altitude
Rises 17:39:36 0° 184° (S) 2,867 7.2 -6.6°
Reaches altitude 10° 17:41:48 10° 183° (S) 1,971 6.4 -6.9°
Maximum altitude 17:46:10 77° 98° (E) 641 3.5 -7.6°
Drops below altitude 10° 17:50:36 10° 12° (NNE) 2,005 5.9 -8.4°
Sets 17:52:51 0° 11° (NNE) 2,921 6.8 -8.7°
